TimeMST,TemperatureF,Dew PointF,Humidity,Sea Level PressureIn,VisibilityMPH,Wind Direction,Wind SpeedMPH,Gust SpeedMPH,PrecipitationIn,Events,Conditions,WindDirDegrees,DateUTC
12:53 AM,8.1,1.9,76,30.07,10.0,SSW,6.9,-,N/A,,Clear,200,2012-12-12 07:53:00
1:53 AM,9.0,3.9,80,30.04,10.0,South,5.8,-,N/A,,Clear,190,2012-12-12 08:53:00
2:53 AM,7.0,3.0,84,30.05,10.0,SSW,6.9,-,N/A,,Scattered Clouds,210,2012-12-12 09:53:00
3:53 AM,10.0,5.0,80,30.02,10.0,SSE,5.8,-,N/A,,Partly Cloudy,160,2012-12-12 10:53:00
4:53 AM,10.9,6.1,81,30.02,10.0,Calm,Calm,-,N/A,,Clear,0,2012-12-12 11:53:00
5:53 AM,6.1,1.9,83,30.12,10.0,Variable,3.5,-,N/A,,Clear,0,2012-12-12 12:53:00
6:53 AM,9.0,5.0,84,30.08,10.0,South,6.9,-,N/A,,Clear,170,2012-12-12 13:53:00
7:53 AM,6.1,1.9,83,30.12,10.0,South,3.5,-,N/A,,Clear,180,2012-12-12 14:53:00
8:53 AM,12.9,8.1,81,30.10,10.0,SSE,5.8,-,N/A,,Clear,160,2012-12-12 15:53:00
9:53 AM,21.9,12.0,66,30.03,10.0,Calm,Calm,-,N/A,,Clear,0,2012-12-12 16:53:00
10:53 AM,27.0,15.1,61,30.01,10.0,Calm,Calm,-,N/A,,Clear,0,2012-12-12 17:53:00
11:53 AM,30.0,16.0,56,29.98,10.0,North,5.8,-,N/A,,Clear,350,2012-12-12 18:53:00
12:53 PM,36.0,18.0,48,29.93,10.0,NW,6.9,-,N/A,,Clear,320,2012-12-12 19:53:00
1:53 PM,39.0,18.0,43,29.89,10.0,NNE,4.6,-,N/A,,Clear,20,2012-12-12 20:53:00
2:53 PM,41.0,16.0,36,29.90,10.0,North,4.6,-,N/A,,Clear,10,2012-12-12 21:53:00
3:53 PM,37.0,12.9,37,29.91,10.0,Variable,3.5,-,N/A,,Clear,0,2012-12-12 22:53:00
4:53 PM,30.0,17.1,59,29.95,10.0,South,10.4,-,N/A,,Clear,180,2012-12-12 23:53:00
5:53 PM,26.1,14.0,60,30.03,10.0,SSW,6.9,-,N/A,,Clear,200,2012-12-13 00:53:00
6:53 PM,27.0,15.1,61,30.01,10.0,South,6.9,-,N/A,,Clear,190,2012-12-13 01:53:00
7:53 PM,25.0,15.1,66,30.05,10.0,South,5.8,-,N/A,,Partly Cloudy,180,2012-12-13 02:53:00
8:53 PM,25.0,15.1,66,30.03,10.0,Calm,Calm,-,N/A,,Mostly Cloudy,0,2012-12-13 03:53:00
9:53 PM,25.0,15.1,66,29.99,10.0,Calm,Calm,-,N/A,,Partly Cloudy,0,2012-12-13 04:53:00
10:53 PM,27.0,15.1,61,29.96,10.0,SE,4.6,-,N/A,,Clear,130,2012-12-13 05:53:00
11:53 PM,23.0,14.0,68,29.97,10.0,South,4.6,-,N/A,,Clear,180,2012-12-13 06:53:00